Date String (YYYY-MM-DD hh:mm:ss) UTC,Instrument flags,Ambient pressure (hPa),Sample flow (lpm),Bypass flow (lpm),Sample temperature (°C),Ambient temperature (°C),ASC tube jacket temperature (°C),LED temperature (°C),Box temperature (°C),Sample RH (%),Span deviation,Mass concentration (μg/m³),Mass concentration (μg/m³),Mass concentration (μg/m³)
DateTimeUTC,F1_M11,P_M11,Q1_M11,Q2_M11,T1_M11,T2_M11,T3_M11,T4_M11,T5_M11,U1_M11,ZSPAN_M11,X0_M11,X2_M11,X1_M11
2021-09-02 17:00:00,,0826.7,5.01,0.00,29.4,28.3,00.0,38.5,31.3,32.6,0001.5,0019.67,0013.73,0012.92
2021-09-02 17:01:00,,0826.7,4.99,0.00,29.5,28.4,00.0,38.5,31.3,32.8,0001.4,0019.30,0013.70,0012.92
2021-09-02 17:02:00,,0826.7,4.99,0.00,29.5,28.5,00.0,38.5,31.4,32.5,0001.0,0018.67,0013.68,0012.90
2021-09-02 17:03:00,,0826.7,5.01,0.00,29.6,28.6,00.0,38.6,31.4,32.4,0000.8,0018.31,0013.69,0012.89
2021-09-02 17:04:00,,0826.7,5.00,0.00,29.6,28.7,00.0,38.6,31.5,32.2,0000.9,0018.48,0013.66,0012.90
2021-09-02 17:05:00,,0826.7,4.99,0.00,29.6,28.8,00.0,38.6,31.5,32.3,0001.0,0018.09,0013.65,0012.92
2021-09-02 17:06:00,,0826.7,5.00,0.00,29.7,28.8,00.0,38.6,31.6,32.1,0001.2,0018.00,0013.64,0012.92
2021-09-02 17:07:00,,0826.7,5.01,0.00,29.7,28.9,00.0,38.7,31.6,32.4,0001.4,0017.60,0013.60,0012.88
2021-09-02 17:08:00,,0826.6,4.98,0.00,29.8,28.9,00.0,38.7,31.7,32.0,0001.3,0017.70,0013.57,0012.88
2021-09-02 17:09:00,,0826.7,5.02,0.00,29.8,29.0,00.0,38.7,31.7,31.9,0001.3,0018.55,0013.54,0012.89
2021-09-02 17:10:00,,0826.7,4.99,0.00,29.8,28.1,00.0,38.7,31.5,31.8,0001.6,0019.18,0013.53,0012.87
2021-09-02 17:11:00,,0826.7,5.00,0.00,29.7,26.4,00.0,38.7,31.0,32.0,0001.6,0019.32,0013.53,0012.84
2021-09-02 17:12:00,,0826.7,5.00,0.00,29.5,25.9,00.0,38.7,30.9,32.3,0001.6,0019.28,0013.51,0012.83
2021-09-02 17:13:00,,0826.6,5.00,0.00,29.4,26.2,00.0,38.6,30.8,32.5,0001.6,0019.25,0013.50,0012.82
2021-09-02 17:14:00,,0826.6,5.00,0.00,29.4,26.6,00.0,38.6,30.9,32.9,0001.7,0019.08,0013.44,0012.78
2021-09-02 17:15:00,,0826.7,5.00,0.00,29.4,27.1,00.0,38.6,31.0,32.9,0001.9,0019.49,0013.42,0012.74
2021-09-02 17:16:00,,0826.6,5.01,0.00,29.4,27.4,00.0,38.5,31.1,32.7,0002.1,0019.84,0013.39,0012.71
2021-09-02 17:17:00,,0826.7,4.99,0.00,29.4,27.7,00.0,38.5,31.1,33.2,0002.2,0020.31,0013.39,0012.67
2021-09-02 17:18:00,,0826.7,4.99,0.00,29.4,28.0,00.0,38.5,31.2,33.2,0002.1,0020.47,0013.39,0012.66
2021-09-02 17:19:00,,0826.6,5.01,0.00,29.4,28.2,00.0,38.5,31.2,33.1,0002.3,0020.49,0013.41,0012.65
2021-09-02 17:20:00,,0826.6,4.99,0.00,29.5,28.3,00.0,38.5,31.3,32.4,0002.4,0019.63,0013.46,0012.66
2021-09-02 17:21:00,,0826.5,5.01,0.00,29.5,28.4,00.0,38.6,31.3,32.5,0002.3,0018.96,0013.49,0012.69
2021-09-02 17:22:00,,0826.5,4.99,0.00,29.5,28.6,00.0,38.6,31.4,32.5,0002.4,0018.72,0013.46,0012.69
2021-09-02 17:23:00,,0826.5,5.01,0.00,29.6,28.7,00.0,38.6,31.4,32.6,0002.5,0018.78,0013.50,0012.70
2021-09-02 17:24:00,,0826.5,4.99,0.00,29.6,28.7,00.0,38.6,31.5,32.4,0002.5,0018.73,0013.49,0012.68
2021-09-02 17:25:00,,0826.5,5.02,0.00,29.7,28.8,00.0,38.6,31.5,32.3,0002.6,0018.72,0013.45,0012.64
2021-09-02 17:26:00,,0826.5,5.00,0.00,29.7,28.9,00.0,38.7,31.5,32.6,0002.5,0018.28,0013.41,0012.62
2021-09-02 17:27:00,,0826.5,5.00,0.00,29.7,28.9,00.0,38.7,31.6,32.4,0002.4,0017.89,0013.32,0012.56
2021-09-02 17:28:00,,0826.5,5.00,0.00,29.8,28.9,00.0,38.7,31.6,31.7,0002.2,0017.53,0013.28,0012.53
2021-09-02 17:29:00,,0826.5,5.00,0.00,29.7,27.5,00.0,38.7,31.3,31.5,0002.1,0017.42,0013.24,0012.50
2021-09-02 17:30:00,,0826.5,5.00,0.00,29.6,26.1,00.0,38.7,30.9,32.2,0001.9,0017.49,0013.24,0012.46
2021-09-02 17:31:00,,0826.5,5.00,0.00,29.5,26.0,00.0,38.7,30.8,33.1,0001.7,0017.43,0013.23,0012.45
2021-09-02 17:32:00,,0826.5,5.01,0.00,29.4,26.4,00.0,38.6,30.9,33.6,0001.7,0017.61,0013.20,0012.43
2021-09-02 17:33:00,,0826.5,5.00,0.00,29.4,26.8,00.0,38.6,31.0,33.7,0001.6,0017.95,0013.19,0012.42
2021-09-02 17:34:00,,0826.5,5.00,0.00,29.4,27.3,00.0,38.6,31.0,33.3,0001.4,0018.55,0013.18,0012.42
2021-09-02 17:35:00,,0826.5,5.00,0.00,29.4,27.6,00.0,38.5,31.1,33.2,0001.3,0018.42,0013.13,0012.41
2021-09-02 17:36:00,,0826.5,5.00,0.00,29.4,27.9,00.0,38.5,31.2,32.9,0001.2,0018.52,0013.20,0012.46
2021-09-02 17:37:00,,0826.5,5.00,0.00,29.4,28.1,00.0,38.5,31.2,33.1,0001.1,0018.19,0013.15,0012.44
2021-09-02 17:38:00,,0826.5,4.99,0.00,29.5,28.3,00.0,38.5,31.3,33.5,0001.1,0018.54,0013.17,0012.45
2021-09-02 17:39:00,,0826.5,5.00,0.00,29.5,28.4,00.0,38.5,31.3,33.7,0001.3,0019.21,0013.21,0012.48
2021-09-02 17:40:00,,0826.5,5.01,0.00,29.6,28.6,00.0,38.6,31.4,33.2,0001.3,0019.26,0013.22,0012.49
2021-09-02 17:41:00,,0826.5,5.00,0.00,29.6,28.7,00.0,38.6,31.4,32.2,0001.2,0019.02,0013.20,0012.52
2021-09-02 17:42:00,,0826.5,5.00,0.00,29.6,28.8,00.0,38.6,31.5,32.0,0001.3,0019.04,0013.19,0012.51
2021-09-02 17:43:00,,0826.5,5.00,0.00,29.7,28.9,00.0,38.6,31.5,32.5,0001.3,0018.88,0013.18,0012.50
2021-09-02 17:44:00,,0826.5,4.99,0.00,29.7,29.0,00.0,38.6,31.6,32.5,0001.4,0018.63,0013.19,0012.48
2021-09-02 17:45:00,,0826.4,4.99,0.00,29.7,28.5,00.0,38.7,31.5,31.8,0001.5,0017.87,0013.14,0012.43
2021-09-02 17:46:00,,0826.4,5.01,0.00,29.6,26.8,00.0,38.7,31.1,31.6,0001.7,0017.82,0013.08,0012.36
2021-09-02 17:47:00,,0826.4,5.00,0.00,29.5,26.1,00.0,38.6,30.8,32.1,0001.7,0018.34,0012.95,0012.25
2021-09-02 17:48:00,,0826.4,5.00,0.00,29.4,26.3,00.0,38.6,30.9,31.4,0001.7,0018.81,0012.83,0012.13
2021-09-02 17:49:00,,0826.3,5.00,0.00,29.4,26.7,00.0,38.6,30.9,31.8,0001.8,0018.37,0012.69,0011.99
2021-09-02 17:50:00,,0826.3,4.99,0.00,29.4,27.1,00.0,38.5,31.0,31.7,0001.8,0018.14,0012.54,0011.86
2021-09-02 17:51:00,,0826.2,5.00,0.00,29.4,27.5,00.0,38.5,31.1,31.8,0001.8,0017.94,0012.38,0011.74
2021-09-02 17:52:00,,0826.2,4.99,0.00,29.4,27.8,00.0,38.5,31.2,32.7,0001.7,0017.93,0012.30,0011.64
2021-09-02 17:53:00,,0826.2,5.01,0.00,29.4,28.1,00.0,38.5,31.2,32.5,0001.8,0017.88,0012.22,0011.56
2021-09-02 17:54:00,,0826.2,5.01,0.00,29.5,28.3,00.0,38.5,31.3,32.7,0002.0,0017.87,0012.16,0011.51
2021-09-02 17:55:00,,0826.2,5.00,0.00,29.5,28.4,00.0,38.5,31.4,32.7,0002.0,0017.97,0012.11,0011.47
2021-09-02 17:56:00,,0826.3,4.99,0.00,29.6,28.6,00.0,38.5,31.4,32.3,0001.7,0018.04,0012.08,0011.46
2021-09-02 17:57:00,,0826.3,5.02,0.00,29.6,28.7,00.0,38.6,31.5,31.8,0001.5,0018.41,0012.10,0011.44
2021-09-02 17:58:00,,0826.2,4.99,0.00,29.7,28.8,00.0,38.6,31.5,32.1,0001.5,0017.77,0012.15,0011.51
2021-09-02 17:59:00,,0826.2,5.01,0.00,29.7,28.9,00.0,38.6,31.6,31.6,0001.2,0017.17,0012.23,0011.58
